BEESAT-4 (41619 NORAD) Tracking and Keplerian Element Data

This shows tracking and keplerian element data for the satellite.

Feedback or suggestion? Click here.




ElementValue
Catalog41619
NameBEESAT-4
Epoch Orbit19758
Epoch Day91.87810186
Epoch Year2020
RAAN153.2211
Inclination97.3284
Eccentricity0.0012902
Argument of Perigee93.4097
Mean Anonmoly266.8616
Mean Motion15.23806694
Decay Rate1.488E-05
L11 41619U 16040W 20091.87810186 .00001488 00000-0 64561-4 0 9990
L22 41619 97.3284 153.2211 0012902 93.4097 266.8616 15.23806694197586

Live tracking and technical data element details for BEESAT-4 (NORAD 41619). BEESAT-4 can be tracked NOW for your location showing map with azimuth and elevation plus other details from your city location.

Track the satellite on the map from your city or location and see movement details for azimuth, elevation, latitude, longitude, range, height, and movement on the map or in text.







IsCatalogInMostPopularTable: catalog: 41619, numindb: 372
Update: records affected: 1



GetName: 41619 BEESAT-4

Hit Count: updated at: Fri, 03 Apr 2020 06:35:19 GMT